DW5683 Weather Reports


time (UTC)temp
F
wind
direction
speed
knots
gust
knots
rain 1hr
in
rain 24hr
in
rain mn
in
humidity
%
barometer
mb
20260504043036 60 0 0.0 2.6 0.00 0.00 0.00 70 1012.6
20260504041542 60 189 0.0 3.5 0.00 0.00 0.00 69 1012.3
20260504040045 60 0 0.0 3.5 0.00 0.00 0.00 69 1012.0
20260504034547 61 189 0.0 4.3 0.00 0.00 0.00 68 1011.8
20260504033038 61 0 0.9 4.3 0.00 0.00 0.00 67 1011.7
20260504031541 62 188 0.9 6.1 0.00 0.00 0.00 65 1011.6
20260504030037 63 192 1.7 5.2 0.00 0.00 0.00 64 1011.3
20260504024537 64 205 0.9 6.1 0.00 0.00 0.00 62 1011.2
20260504023036 65 205 0.9 7.0 0.00 0.00 0.00 61 1010.9
20260504021540 66 209 1.7 5.2 0.00 0.00 0.00 60 1010.9
20260504020041 66 213 0.9 6.1 0.00 0.00 0.00 60 1010.8
20260504014538 67 209 2.6 7.8 0.00 0.00 0.00 59 1010.8
20260504013049 67 200 1.7 7.0 0.00 0.00 0.00 59 1010.6
20260504011535 67 190 1.7 5.2 0.00 0.00 0.00 60 1010.6
20260504010037 67 0 1.7 7.8 0.00 0.00 0.00 61 1010.7
20260504004538 66 194 0.9 3.5 0.00 0.00 0.00 62 1010.7
20260504003037 66 0 0.0 5.2 0.00 0.00 0.00 61 1010.7
20260504001538 67 195 0.9 3.5 0.00 0.00 0.00 61 1010.7
20260504000035 66 0 0.0 1.7 0.00 0.00 0.00 62 1010.7
20260503234543 66 0 0.0 4.3 0.00 0.00 0.00 62 1010.9
20260503233037 66 195 0.9 3.5 0.00 0.00 0.00 63 1011.2
20260503231537 66 0 0.0 4.3 0.00 0.00 0.00 62 1011.3
20260503230041 66 0 0.0 6.1 0.00 0.00 0.00 62 1011.2
20260503224535 66 191 0.9 6.1 0.00 0.00 0.00 62 1011.2
20260503223035 66 0 0.9 4.3 0.00 0.00 0.00 63 1011.3
20260503221542 66 155 0.0 6.1 0.00 0.00 0.00 63 1011.2
20260503220043 65 144 0.0 6.1 0.00 0.00 0.00 63 1011.1
20260503214542 65 186 0.0 3.5 0.00 0.00 0.00 64 1011.3
20260503213043 65 188 0.0 7.0 0.00 0.00 0.00 62 1011.3
20260503211537 65 229 0.0 5.2 0.00 0.00 0.00 62 1011.3
20260503210035 65 169 1.7 6.1 0.00 0.00 0.00 62 1011.5
20260503204534 65 0 1.7 6.1 0.00 0.00 0.00 61 1011.5
20260503203041 65 0 0.9 5.2 0.00 0.00 0.00 62 1011.4
20260503201539 66 191 2.6 7.8 0.00 0.00 0.00 60 1011.5
20260503200038 68 188 2.6 7.8 0.00 0.00 0.00 59 1011.6
20260503194543 69 204 0.9 12.2 0.00 0.00 0.00 60 1011.6
20260503193044 67 130 0.9 5.2 0.00 0.00 0.00 62 1011.5
20260503191601 65 196 2.6 8.7 0.00 0.00 0.00 66 1011.6
20260503190037 64 189 0.9 7.8 0.00 0.00 0.00 70 1011.8
20260503184538 61 134 0.9 7.0 0.00 0.00 0.00 73 1012.0
20260503183038 59 123 0.9 8.7 0.00 0.00 0.00 77 1012.0
20260503181547 59 0 0.0 6.1 0.00 0.00 0.00 76 1011.8
20260503180040 59 0 0.9 10.4 0.00 0.00 0.00 74 1011.9
20260503174544 60 0 0.9 9.6 0.00 0.00 0.00 74 1011.8
20260503173041 58 143 0.9 7.0 0.00 0.00 0.00 79 1011.6
20260503171539 57 124 0.9 6.1 0.00 0.00 0.00 79 1011.5
20260503081540 55 0 0.0 0.0 0.00 0.00 0.00 82 1009.7
20260503071540 56 0 0.0 0.0 0.00 0.00 0.00 80 1010.2
20260503054557 59 0 0.0 0.9 0.00 0.00 0.00 76 1010.4
20260503053037 60 0 0.0 1.7 0.00 0.00 0.00 74 1010.3
20260503051535 60 0 0.0 0.0 0.00 0.00 0.00 72 1010.3
20260503050036 61 0 0.0 0.0 0.00 0.00 0.00 71 1010.3
20260503044542 61 0 0.0 0.9 0.00 0.00 0.00 70 1010.2